Regional Weather Roundup
Issued by NWS Pendleton, OR

Home | Current Version | Previous Version | Text Only | Print | Product List | Glossary On
Versions: 1 2 3 4 5 6 7 8 9 10 11 12 13 14 15 16 17 18 19 20 21 22 23 24 25 26 27 28 29 30 31 32 33 34 35 36 37 38 39 40 41 42 43 44 45 46 47 48 49 50
631
ASUS46 KPDT 090625
RWRPDT
PENDLETON REGIONAL WEATHER ROUNDUP
NATIONAL WEATHER SERVICE PENDLETON OREGON
1000 PM PST MON FEB 8 2016

NOTE: FAIR INDICATES FEW OR NO CLOUDS BELOW 12,000 FEET WITH NO
SIGNIFICANT WEATHER AND/OR OBSTRUCTIONS TO VISIBILITY.

# INDICATES UNOFFICIAL STATION AND DATA

WAZ520-090710-
EAST SLOPES OF WASHINGTON CASCADES

CITY            SKY/WX      TMP DP  RH  WIND    PRES   REMARKS
#BUMPING DAM    N/A         27  N/A N/A CALM    N/A
#CLE ELUM HS    N/A         28  26  92  CALM    30.45R
#CLE ELUM 2NW   N/A         27  27  100 CALM    N/A
#CLE ELUM LAKE  N/A         34  31  89  CALM    30.55F
#CLIFFDEL 2NW   N/A         29  28  96  NW3     N/A
#GLENWOOD       N/A         29  27  92  CALM    30.57F
#MANASTASH CYN  N/A         29  25  85  CALM    30.43F
#NELSON         N/A         N/A N/A N/A CALM    30.49F
#NELSON 3SW     N/A         30  29  96  CALM    30.80S
#NILE           N/A         28  27  96  CALM    29.84S
#RONALD 2NW     N/A         33  N/A N/A N1      30.32S
#SNOWDEN        N/A         37  26  64  E3      N/A
#TEANAWAY 4NE   N/A         29  28  96  CALM    N/A
#TROUT LAKE 1NE N/A         31  29  92  CALM    30.56S
#TROUT LAKE 1E  N/A         30  29  96  CALM    30.45R
$$

WAZ521-090710-
SIMCOE HIGHLANDS

CITY            SKY/WX      TMP DP  RH  WIND    PRES   REMARKS
#BICKLETON HS   N/A         35  29  78  CALM    N/A
#CENTERVILLE 1SWN/A         32  28  85  CALM    30.53F
#GOLDENDALE     N/A         35  32  89  E2      N/A
#GOLDENDALE 1NE N/A         33  27  78  N3      N/A
#GOODNOE HILLS  N/A         39  32  76  NE2     30.40S
#LYLE 6NE       N/A         38  34  85  N1      30.52S
$$

WAZ026-090710-
KITTITAS VALLEY

CITY            SKY/WX      TMP DP  RH  WIND    PRES   REMARKS
ELLENSBURG AP   CLEAR       28  23  81  CALM    30.53S
6HR MIN TEMP:   28; 6HR MAX TEMP:   40;

#ELLENSBURG CWU N/A         29  26  88  CALM    30.55F
#ELLENSBURG 3NE N/A         27  25  92  CALM    30.50S
#ELLENSBURG     N/A         30  30  100 CALM    N/A
#KITTITAS 4N    N/A         27  24  88  CALM    30.54F
#KITTITAS 3S    N/A         18  16  92  CALM    30.63S
#THORP 6N       N/A         36  31  82  E3      30.60F
$$

WAZ027-090710-
YAKIMA VALLEY

CITY            SKY/WX      TMP DP  RH  WIND    PRES   REMARKS
YAKIMA AIRPORT  CLEAR       33  28  82  W8      30.53F
6HR MIN TEMP:   33; 6HR MAX TEMP:   52;

YAKIMA-VAGABOND CLEAR       35  30  82  E5      30.50F
6HR MIN TEMP:   35; 6HR MAX TEMP:   51;

#DONALD 2NE     N/A         41  24  50  NW3     29.36F
#GRANDVIEW      N/A         33  29  85  CALM    30.58S
#MABTON         N/A         35  32  89  CALM    30.53F
#MOXEE 2E       N/A         36  28  72  E3      30.49S
#NACHES 2SW     N/A         35  32  89  W2      30.52S
#OUTLOOK DOT    N/A         N/A N/A N/A CALM    N/A
#SELAH 8E       N/A         30  29  96  E3      N/A
#TERRACE HTS    N/A         35  32  89  CALM    30.54F
#TOPPENISH      N/A         37  33  85  CALM    30.47F
#W YAKIMA       N/A         37  32  82  N2      30.56F
#WHITE SWAN 5E  N/A         34  31  89  CALM    30.57F
#WILEY CITY 3W  N/A         34  27  75  CALM    30.49F
$$

WAZ028-090710-
LOWER COLUMBIA BASIN...WASHINGTON

CITY            SKY/WX      TMP DP  RH  WIND    PRES   REMARKS
HANFORD         CLEAR       39  31  73  W9      30.53
6HR MIN TEMP:   38; 6HR MAX TEMP:   52;

PASCO           CLEAR       34  30  85  N3      30.55F
6HR MIN TEMP:   32; 6HR MAX TEMP:   52;

PROSSER AWOS    N/A         32  30  92  N1      30.57S
RICHLAND AWOS   CLEAR       36  32  85  CALM    30.55F
#BENTON CITY    N/A         37  32  82  CALM    30.47S
#CONNELL 5N     N/A         34  31  89  NW2     30.55S
#ELTOPIA 6NW    N/A         37  33  85  CALM    29.48F
#KAHLOTUS       N/A         37  34  89  N5      30.54F
#KENNEWICK 3S   N/A         39  33  79  CALM    30.57S
#PATERSON       N/A         37  33  85  CALM    30.54S
#PROSSER        N/A         40  32  73  CALM    30.55F
#SAGEMOOR 2W    N/A         37  32  82  CALM    30.40S
#TOUCHET 2S     N/A         30  27  88  CALM    30.54F
#WEST PASCO     N/A         38  31  76  CALM    30.60S
$$

WAZ029-090710-
FOOTHILLS OF THE BLUES...WASHINGTON

CITY            SKY/WX      TMP DP  RH  WIND    PRES   REMARKS
WALLA WALLA AP  CLEAR       35  32  89  SE5     30.52S
6HR MIN TEMP:   35; 6HR MAX TEMP:   48;

#CLYDE 6NW      N/A         31  29  92  CALM    30.55F
#DAYTON SCHOOL  N/A         34  28  78  N1      30.50F
#LOWDEN 2SE     N/A         32  30  92  E1      30.51S
#PLEASANT VIEW 1N/A         40  36  85  SW1     30.58S
#PRESCOTT       N/A         32  30  92  CALM    30.55F
#WHITMAN COLLEGEN/A         41  37  86  N1      30.60S
#WAITSBURG 5S   N/A         36  34  92  CALM    30.65S
#WAITSBURG 8N   N/A         29  14  53  CALM    30.36S
#WALLA WALLA U  N/A         36  33  89  CALM    30.55F
#WHITMAN MISSIONN/A         34  31  89  CALM    30.58S
$$

WAZ030-090710-
BLUE MOUNTAINS...WASHINGTON

CITY            SKY/WX      TMP DP  RH  WIND    PRES   REMARKS
#DIXIE 5SE      N/A         41  38  89  N3      30.40F
#SKI BLUEWOOD   N/A         34  32  92  SW2     30.49F
$$

ORZ009-041-WAZ024-090710-
COLUMBIA RIVER GORGE

CITY            SKY/WX      TMP DP  RH  WIND    PRES   REMARKS
HOOD RIVER AP   CLEAR       39  36  89  CALM    30.52S
THE DALLES AP   CLEAR       37  32  82  E5      30.55R
6HR MIN TEMP:   37; 6HR MAX TEMP:   55;

#ARLINGTON AIRPON/A         40  35  82  CALM    30.56F
#ARLINGTON HS   N/A          0   0  100 CALM    30.46F
#LYLE           N/A         44  38  79  E1      30.56S
#MARYHILL 2W    N/A         41  38  89  CALM    N/A
#MOSIER 1S      N/A         37  29  72  CALM    30.49F
#MURDOCK        N/A         40  35  82  CALM    30.59S

$$

ORZ510-090710-
NORTH CENTRAL OREGON

CITY            SKY/WX      TMP DP  RH  WIND    PRES   REMARKS
#CHENOWITH 1W   N/A         37  34  89  E10     N/A
#DUFUR 9E       N/A         38  33  82  E15     30.58S WCI 29
#GRASS VALLEY 1SN/A         34  32  92  E6      30.57F
#MAUPIN SCHOOL  N/A         41  34  76  CALM    30.54S
#MORO SCHOOL    N/A         33  32  96  CALM    30.49S
#SHANIKO 4NW    N/A         39  36  89  N5      30.44S
#TYGH VALLEY 2NEN/A         38  33  82  N1      30.54S
#WAPANITIA AIRPON/A         31  29  92  CALM    30.57S
#WASCO 5NE      N/A         32  29  89  CALM    30.56S
$$

ORZ511-090710-
CENTRAL OREGON

CITY            SKY/WX      TMP DP  RH  WIND    PRES   REMARKS
BEND AIRPORT    CLEAR       39  32  76  CALM    30.44F
MADRAS AIRPORT  CLEAR       32  32  100 CALM    30.49S
PRINEVILLE AP   CLEAR       46  34  63  S12     30.46S WCI 40
REDMOND AIRPORT CLEAR       37  33  85  CALM    30.45F
6HR MIN TEMP:   35; 6HR MAX TEMP:   65;

#ASHWOOD SCHOOL N/A         36  34  92  CALM    30.41R
#BEND 6E        N/A         43  32  65  CALM    30.39F
#BEND 1SW       N/A         33  30  89  CALM    N/A
#BEND-KIM LN    N/A         38  34  85  CALM    30.42S
#LAKE BILLY CHINN/A         41  N/A N/A CALM    30.53R
#MADRAS         N/A         37  35  92  CALM    N/A
#POWELL BUTTE 3EN/A         46  33  60  SE5     N/A
#PRINEVILLE 3N  N/A         36  32  85  E7      30.47S
#WARM SPRINGS   N/A         44  38  79  SW5     30.44S

$$


ORZ509-090710-
EAST SLOPES OF OREGON CASCADES

CITY            SKY/WX      TMP DP  RH  WIND    PRES   REMARKS
SISTERS AWOS    N/A         30  28  92  CALM    30.40S
#BLACK BUTTE RNCN/A         33  31  92  CALM    30.53S
#CAMP SHERMAN   N/A         29  26  88  CALM    30.62F
#LA PINE 4NW    N/A         29  24  81  CALM    30.55S
#SISTERS AIRPOR N/A         30  30  100 CALM    30.17S
#SISTERS ODOT   N/A         31  N/A N/A CALM    N/A
#SISTERS 3N     N/A         30  23  75  CALM    30.44S
#SUNRIVER       N/A         31  29  92  CALM    30.53S
#TUMALO 3W      N/A         43  37  79  N3      30.34S

$$

ORZ044-090710-
LOWER COLUMBIA BASIN...OREGON

CITY            SKY/WX      TMP DP  RH  WIND    PRES   REMARKS
HERMISTON       CLEAR       33  31  92  S5      30.53S
6HR MIN TEMP:   31; 6HR MAX TEMP:   50;

#BOARDMAN SCHOOLN/A         32  29  89  SE1     30.55S
#BOARDMAN 8SW   N/A         38  33  82  NE1     30.55S
#ECHO 8SW       N/A         33  28  82  SW1     30.53S
#IONE SCHOOL    N/A         32  19  58  CALM    30.48S
#IRRIGON 4NW    N/A         34  34  100 S3      N/A
#UMATILLA SCHOOLN/A         32  32  100 CALM    30.58R
#UMATILLA       N/A         38  31  76  CALM    30.49S
$$

ORZ507-090710-
NORTHERN FOOTHILLS OF THE BLUES

CITY            SKY/WX      TMP DP  RH  WIND    PRES   REMARKS
PENDLETON AIRPT CLEAR       36  33  89  SE3     30.51S
6HR MIN TEMP:   36; 6HR MAX TEMP:   49;

#ADAMS 3WNW     N/A         35  32  89  E1      30.55F
#ATHENA         N/A         36  34  92  CALM    30.58S
#CAYUSE         N/A         35  33  92  CALM    30.55S
#HELIX SCHOOL   N/A         38  34  85  N1      30.54F
#HELIX 3N       N/A         39  34  82  N5      30.44S
#HOLDMAN 5SE    N/A         36  32  85  CALM    30.48R
#HOLDMAN 6E     N/A         37  33  85  S7      30.35F
#M-F GROVE ELEM N/A         35  31  85  CALM    30.49F
#M-FREEWATER 5SEN/A         34  32  92  CALM    30.49F
#PENDLETON DNTN N/A         35  25  66  CALM    30.55S
#PDT AQUATIC CTRN/A         35  25  66  CALM    30.52S
#PDT SUNRIDGE   N/A         31  29  92  CALM    30.53S
#PENDLETON 7NW  N/A         32  28  85  CALM    29.34S
#PILOT ROCK     N/A         32  24  72  CALM    30.49F
#TUTUILLA       N/A         31  29  92  CALM    30.55S
#UMAPINE 2E     N/A         33  31  92  CALM    30.50S
#WESTON SCHOOL  N/A         39  33  79  CALM    30.44F

$$

ORZ508-090710-
SOUTHERN FOOTHILLS OF THE BLUES

CITY            SKY/WX      TMP DP  RH  WIND    PRES   REMARKS
LEXINGTON       CLEAR       34  32  92  E8      30.53F
#CONDON SCHOOL  N/A         34  32  92  N7      30.38F
#CONDON 5W      N/A         36  32  85  E6      30.42F
#FOSSIL SCHOOL  N/A         33  31  92  CALM    30.37F
#HEPPNER EOC    N/A         33  31  92  SE2     30.48S
#HEPPNER 4NE    N/A         35  33  92  E1      30.53S
#LEXINGTON 2SE  N/A         31  28  88  CALM    30.46F
#MIKKALO        N/A         35  31  85  E6      30.58S
#OLEX 4N        N/A         38  34  85  CALM    30.48F
#RUGGS 5NE      N/A         36  35  96  NE2     30.62F
#RUGGS 2SW      N/A         34  32  92  CALM    30.55S

$$

ORZ502-503-090710-
BLUE MOUNTAINS

CITY            SKY/WX      TMP DP  RH  WIND    PRES   REMARKS
MEACHAM         CLEAR       38  30  73  CALM    30.49S
6HR MIN TEMP:   37; 6HR MAX TEMP:   49;

#HEPPNER 15SE   N/A         36  28  72  N5      30.30S
#LONG CREEK HS  N/A         42  38  86  CALM    N/A
#PIKES PEAK     N/A         49  37  63  CALM    27.99S
#TOLLGATE       N/A         34  30  85  NE1     30.30F
#TROY SCHOOL    N/A         39  34  82  W5      30.47S
#UKIAH          N/A         30  28  92  CALM    30.50F
#WESTON 4E      N/A         45  34  65  SE5     30.45F
$$

ORZ505-090710-
JOHN DAY BASIN

CITY            SKY/WX      TMP DP  RH  WIND    PRES   REMARKS
JOHN DAY        CLEAR       47  33  58  E13     30.50F WCI 41
#DAYVILLE SCHOOLN/A         45  32  60  E2      30.42R
#MITCHELL       N/A         37  34  89  CALM    30.59S
#MITCHELL 8NW   N/A         45  36  70  CALM    30.66R
#MONUMENT HS    N/A         37  33  85  CALM    30.41F
#MT. VERNON 5SE N/A         48  31  51  E1      30.45S
#SPRAY SCHOOL   N/A         36  N/A N/A CALM    N/A
#WINLOCK        N/A         42  34  73  CALM    30.40S
$$

ORZ506-090710-
OCHOCO AND JOHN DAY HIGHLANDS

CITY            SKY/WX      TMP DP  RH  WIND    PRES   REMARKS
#KEYES SMT DOT  N/A         43  31  62  CALM    N/A
#PAULINA SCHOOL N/A         55  36  49  CALM    30.42S
#PINE MTN OBS   N/A         44  33  65  SE18G28 N/A    WCI 36
#PRAIRIE CITY   N/A         33  27  78  CALM    30.47R
#SENECA         N/A         23  N/A N/A CALM    N/A
#SENECA 9NW     N/A         26  24  92  CALM    30.68S
$$

ORZ049-090710-
GRANDE RONDE VALLEY

CITY            SKY/WX      TMP DP  RH  WIND    PRES   REMARKS
LA GRANDE       PTCLDY      41  30  65  S14     30.54S WCI 33
#COVE           N/A         32  31  96  CALM    30.55S
#COVE SCHOOL    N/A         33  30  89  CALM    30.53S
#COVE 6NW       N/A         36  31  82  SE2     30.45S
#ELGIN 3N       N/A         32  24  72  CALM    30.49S
#ELGIN 1E       N/A         36  30  79  CALM    N/A
#IMBLER SCHOOL  N/A         36  31  82  S6      30.48R
#ISLAND CITY 4N N/A         45  43  93  CALM    30.26F
#UNION 1S       N/A         39  33  79  SE15G26 30.55S WCI 31
$$

ORZ050-090710-
WALLOWA COUNTY

CITY            SKY/WX      TMP DP  RH  WIND    PRES   REMARKS
JOSEPH AIRPORT  CLEAR       28  27  96  SW3     30.55S
#ENTERPRISE AP  N/A         30  25  81  CALM    30.42S
#ENTERPRISE HS  N/A         28  26  92  CALM    30.50S
#IMNAHA SCHOOL  N/A         39  33  79  S2      30.52R
#JOSEPH 3N      N/A         27  22  81  CALM    30.50F
#JOSEPH 3W      N/A         N/A N/A N/A CALM    30.31F
#LOSTINE        N/A         26  24  92  CALM    30.49S
#MT HOWARD 8000 N/A         47  21  35  CALM    30.61F
#PROMISE 1S     N/A         33  30  89  CALM    30.70F
#WALLOWA SCHOOL N/A         24  22  92  CALM    30.50S



$$



USA.gov is the U.S. government's official web portal to all federal, state and local government web resources and services.